Regional Weather Roundup
Issued by NWS

Home | Current Version | Previous Version | Graphics & Text | Print | Product List | Glossary On
Versions: 1 2 3 4 5 6 7 8 9 10 11 12 13 14 15 16 17 18 19 20 21 22 23 24 25 26 27 28 29 30 31 32 33 34 35 36 37 38 39 40 41 42 43 44 45 46 47 48 49 50
000
ASUS43 KTOP 020108
RWRKS

WEATHER ROUNDUP FOR KANSAS
NATIONAL WEATHER SERVICE GOODLAND KS
800 PM CDT WED OCT 01 2014

NOTE:  "FAIR" INDICATES FEW OR NO CLOUDS BELOW 12,000 FEET WITH NO
SIGNIFICANT WEATHER AND/OR OBSTRUCTIONS TO VISIBILITY.

KSZ001>006-013>018-027>032-041>047-020200-
NORTHWEST KANSAS

CITY           SKY/WX    TMP DP  RH WIND       PRES   REMARKS
GOODLAND       PTCLDY    63  47  55 SE6       29.80S
HAYS           PTCLDY    70  59  68 N5        29.75R
HILL CITY      CLEAR     68  52  56 S3        29.75R
RUSSELL        PTCLDY    71  62  73 NE5       29.72R
$$

KSZ061>065-074>080-084>089-020200-
SOUTHWEST KANSAS

CITY           SKY/WX    TMP DP  RH WIND       PRES   REMARKS
DODGE CITY     CLEAR     69  56  62 N8        29.75R
GARDEN CITY    CLEAR     69  50  50 E9        29.76R
GREAT BEND     CLEAR     70  63  78 N6        29.73R
LIBERAL        CLEAR     77  37  24 CALM      29.76S
PRATT          CLEAR     72  63  73 N6        29.73R
$$

KSZ066>073-081>083-090>101-020200-
SOUTHEAST KANSAS

CITY           SKY/WX    TMP DP  RH WIND       PRES   REMARKS
CHANUTE        PTCLDY    75  67  76 SE14      29.69S
COFFEYVILLE    PTCLDY    79  68  69 S14       29.70R
HUTCHINSON     CLEAR     76  67  73 N9        29.67R
MEDICINE LODGE   N/A     78  48  34 CALM      29.68R
NEWTON         CLEAR     81  55  41 CALM      29.69S
PARSONS        LGT RAIN  77  70  79 S9G17     29.72S
WICHITA INTL   PTCLDY    79  61  53 S5        29.65R
WICHITA JABRA  CLEAR     80  61  52 SE3       29.66R
WICHITA MCCONL CLEAR     83  60  45 SE5       29.66S
WINFIELD       CLEAR     80  62  54 S10       29.67R
$$

KSZ007>012-019>026-033>040-048>060-102>105-020200-
NORTHEAST KANSAS

CITY           SKY/WX    TMP DP  RH WIND       PRES   REMARKS
CONCORDIA      CLEAR     71  62  73 CALM      29.73R
EMPORIA        TSTM      71  67  87 SE12      29.70R
LAWRENCE       MOCLDY    71  64  78 E9        29.71S
MANHATTAN      MOCLDY    72  63  73 VRB7      29.73R
MARYSVILLE     CLOUDY    72  64  78 CALM      29.73R
OLATHE IND     MOCLDY    69  67  93 E9        29.73S
OLATHE EXE     MOCLDY    69  67  93 E10       29.73S
SALINA         CLEAR     75  63  66 N13       29.70R
TOPEKA BILLARD PTCLDY    76  69  79 E6        29.69S
TOPEKA FORBES  PTCLDY    75  67  76 SE6       29.69S
$$



USA.gov is the U.S. government's official web portal to all federal, state and local government web resources and services.